"Timestamp","TZ","WindDir_Mean (deg)","WindSpd_Mean (km/h)","WindSpd_Min (km/h)","WindSpd_Max (km/h)","Temp_Mean (deg)","RH_Mean (%)","MSLP_Mean (hPa)","Rain_Acc (mm)","Rain_Intensity (mm/h)","Hail_Acc (hits/cm2)","Hail_Intensity (hits/cm2hr)","Solar_Mean (W/m2)"
2020/08/03 00:00:00.001,n,209,0.36,0.36,0.72,13.5,81.9,1023.32,0,0,0,0,0.029602
2020/08/03 00:01:00.000,n,43,1.44,1.08,1.8,13.5,81.9,1023.22,0,0,0,0,0.032234
2020/08/03 00:02:00.000,n,318,1.08,0.72,1.44,13.5,82,1023.22,0,0,0,0,0.030479
2020/08/03 00:03:00.000,n,11,2.16,1.8,2.16,13.5,81.9,1023.32,0,0,0,0,0.032234
2020/08/03 00:04:00.000,n,21,1.44,1.08,1.8,13.5,82.2,1023.22,0,0,0,0,0.030479
2020/08/03 00:05:00.004,n,267,1.08,0.36,1.44,13.5,82.2,1023.22,0,0,0,0,0.029602
2020/08/03 00:06:00.002,n,344,0.36,0,0.72,13.5,82,1023.22,0,0,0,0,0.027885
2020/08/03 00:07:00.000,n,20,1.44,1.08,2.16,13.4,81.9,1023.22,0,0,0,0,0.034828
2020/08/03 00:08:00.012,n,72,2.16,2.16,2.88,13.4,82.1,1023.22,0,0,0,0,0.027885
2020/08/03 00:09:00.010,n,31,1.8,1.08,2.88,13.4,82.2,1023.22,0,0,0,0,0.031357
2020/08/03 00:10:00.000,n,98,1.8,1.08,2.52,13.4,82.1,1023.22,0,0,0,0,0.033112
2020/08/03 00:11:00.001,n,37,1.08,0.36,2.16,13.4,82.1,1023.22,0,0,0,0,0.035706
2020/08/03 00:12:00.000,n,50,2.52,2.52,2.52,13.4,82,1023.22,0,0,0,0,0.036583
2020/08/03 00:13:00.000,n,72,2.16,1.8,2.52,13.4,82.2,1023.22,0,0,0,0,0.040054
2020/08/03 00:14:00.000,n,108,1.44,0.72,1.44,13.4,82.1,1023.22,0,0,0,0,0.039177
2020/08/03 00:15:00.006,n,143,1.44,1.08,1.8,13.4,81.9,1023.22,0,0,0,0,0.033951
2020/08/03 00:16:00.003,n,191,2.16,1.44,2.52,13.3,81.7,1023.22,0,0,0,0,0.035706
2020/08/03 00:17:00.000,n,145,2.16,0.72,3.24,13.3,81.6,1023.12,0,0,0,0,0.029602
2020/08/03 00:18:00.015,n,175,1.8,1.44,2.16,13.2,81.6,1023.22,0,0,0,0,0.035706
2020/08/03 00:19:00.000,n,241,0.36,0.36,0.72,13.2,81.6,1023.12,0,0,0,0,0.03746
2020/08/03 00:20:00.000,n,274,1.08,0.36,1.44,13.2,81.6,1023.12,0,0,0,0,0.035706
2020/08/03 00:21:00.007,n,133,1.08,0.36,1.44,13.2,81.6,1023.22,0,0,0,0,0.0383
2020/08/03 00:22:00.000,n,190,0.36,0.36,0.72,13.2,81.5,1023.22,0,0,0,0,0.034828
2020/08/03 00:23:00.000,n,228,0.72,0,1.08,13.2,81.5,1023.22,0,0,0,0,0.033951
2020/08/03 00:24:00.008,n,250,1.44,1.08,1.8,13.1,81.6,1023.12,0,0,0,0,0.039177
2020/08/03 00:25:00.005,n,258,2.16,1.8,2.16,13.1,81.7,1023.12,0,0,0,0,0.035706
2020/08/03 00:26:00.002,n,307,1.08,0.72,1.08,13.1,81.8,1023.12,0,0,0,0,0.034828
2020/08/03 00:27:00.015,n,228,0.36,0.36,0.36,13.1,81.8,1023.12,0,0,0,0,0.033112
2020/08/03 00:28:00.000,n,228,0.36,0.36,0.72,13.1,81.8,1023.12,0,0,0,0,0.03746
2020/08/03 00:29:00.000,n,285,0.72,0.36,0.72,13.1,81.8,1023.12,0,0,0,0,0.032234
2020/08/03 00:30:00.000,n,281,1.44,1.44,1.44,13.1,81.9,1023.12,0,0,0,0,0.035706
2020/08/03 00:31:00.005,n,292,0.72,0.36,0.72,13.1,81.9,1023.22,0,0,0,0,0.034828
2020/08/03 00:32:00.002,n,9,1.08,0.36,1.8,13.1,82.2,1023.22,0,0,0,0,0.036583
2020/08/03 00:33:00.000,n,128,1.44,1.08,1.8,13.1,81.9,1023.12,0,0,0,0,0.033951
2020/08/03 00:34:00.014,n,105,0.36,0.36,0.72,13.1,81.8,1023.12,0,0,0,0,0.036583
2020/08/03 00:35:00.010,n,112,0.72,0.72,1.08,13.1,81.7,1023.12,0,0,0,0,0.033112
2020/08/03 00:36:00.008,n,129,1.44,1.08,1.8,13.1,81.6,1023.12,0,0,0,0,0.030479
2020/08/03 00:37:00.000,n,148,1.44,1.44,1.44,13.1,81.5,1023.12,0,0,0,0,0.03746
2020/08/03 00:38:00.000,n,79,1.08,0.72,1.44,13.1,81.5,1023.12,0,0,0,0,0.035706
2020/08/03 00:39:00.000,n,113,1.08,0.72,1.08,13.1,81.5,1023.12,0,0,0,0,0.030479
2020/08/03 00:40:00.000,n,81,0.72,0.72,1.44,13.1,81.6,1023.12,0,0,0,0,0.034828
2020/08/03 00:41:00.000,n,48,2.16,1.8,2.52,13.1,81.7,1023.12,0,0,0,0,0.039177
2020/08/03 00:42:00.006,n,104,1.44,1.08,1.44,13.1,81.6,1023.12,0,0,0,0,0.035706
2020/08/03 00:43:00.005,n,107,1.44,1.08,1.8,13.1,81.6,1023.12,0,0,0,0,0.035706
2020/08/03 00:44:00.002,n,145,0.36,0.36,1.08,13.1,81.6,1023.02,0,0,0,0,0.036583
2020/08/03 00:45:00.016,n,78,1.08,0.36,1.44,13.1,81.7,1023.02,0,0,0,0,0.033951
2020/08/03 00:46:00.000,n,113,0.36,0.36,0.72,13.1,81.6,1023.02,0,0,0,0,0.036583
2020/08/03 00:47:00.000,n,285,1.8,1.8,2.16,13.1,81.4,1023.02,0,0,0,0,0.03746
2020/08/03 00:48:00.000,n,265,1.8,1.44,2.52,13.1,81.5,1023.02,0,0,0,0,0.0383
2020/08/03 00:49:00.005,n,318,0.72,0.72,1.08,13.1,81.5,1023.02,0,0,0,0,0.0383
2020/08/03 00:50:00.002,n,250,2.16,1.8,2.52,13.1,81.4,1023.02,0,0,0,0,0.03746
2020/08/03 00:51:00.000,n,237,1.08,1.08,1.8,13.1,81.4,1023.02,0,0,0,0,0.039177
2020/08/03 00:52:00.012,n,266,1.08,0.72,1.08,13.1,81.3,1023.02,0,0,0,0,0.036583
2020/08/03 00:53:00.009,n,252,0.72,0.72,0.72,13.1,81.2,1023.02,0,0,0,0,0.041809
2020/08/03 00:54:00.006,n,184,0.72,0.36,0.72,13.1,81.2,1022.92,0,0,0,0,0.033112
2020/08/03 00:55:00.000,n,279,1.44,0.72,1.8,13.1,81.1,1022.92,0,0,0,0,0.0383
2020/08/03 00:56:00.001,n,247,1.44,0.72,1.8,13.1,81.1,1022.92,0,0,0,0,0.031319
2020/08/03 00:57:00.000,n,245,1.08,1.08,1.44,13.1,80.9,1022.92,0,0,0,0,0.040054
2020/08/03 00:58:00.000,n,266,1.08,0.72,1.08,13.1,80.9,1022.92,0,0,0,0,0.03746
2020/08/03 00:59:00.000,n,256,1.8,1.44,2.16,13.1,80.8,1022.92,0,0,0,0,0.034828
2020/08/03 01:00:00.006,n,247,1.44,1.08,1.44,13.1,80.8,1022.92,0,0,0,0,0.039177
2020/08/03 01:01:00.004,n,254,2.52,2.16,2.88,13,80.6,1022.92,0,0,0,0,0.040932
2020/08/03 01:02:00.000,n,237,1.44,1.08,1.8,13,80.5,1022.92,0,0,0,0,0.036583
2020/08/03 01:03:00.014,n,139,2.52,2.16,2.52,13,80.7,1022.92,0,0,0,0,0.039177
2020/08/03 01:04:00.000,n,147,1.8,1.8,2.16,13,80.6,1022.82,0,0,0,0,0.039177
2020/08/03 01:05:00.000,n,143,0.72,0,1.08,13,80.4,1022.82,0,0,0,0,0.036583
2020/08/03 01:06:00.000,n,94,0.36,0.36,0.72,13,80.3,1022.82,0,0,0,0,0.034828
2020/08/03 01:07:00.001,n,156,1.08,1.08,1.44,13,80.3,1022.82,0,0,0,0,0.041809
2020/08/03 01:08:00.000,n,147,2.16,2.16,2.88,13,80.1,1022.82,0,0,0,0,0.040054
2020/08/03 01:09:00.000,n,172,1.8,1.44,2.16,13,80.1,1022.82,0,0,0,0,0.040054
2020/08/03 01:10:00.008,n,145,2.16,1.8,2.52,13,80,1022.82,0,0,0,0,0.0383
2020/08/03 01:11:00.005,n,161,1.08,1.08,1.08,13,80.1,1022.72,0,0,0,0,0.036583
2020/08/03 01:12:00.002,n,152,2.16,2.16,2.88,13,80.2,1022.72,0,0,0,0,0.035706
2020/08/03 01:13:00.000,n,164,2.16,1.8,2.52,13,80.3,1022.72,0,0,0,0,0.039177
2020/08/03 01:14:00.000,n,174,1.8,1.08,2.52,13,80.3,1022.72,0,0,0,0,0.036583
2020/08/03 01:15:00.000,n,246,2.52,2.52,2.88,12.9,80.3,1022.72,0,0,0,0,0.0383
2020/08/03 01:16:00.006,n,308,1.44,1.08,1.8,12.9,80.7,1022.72,0,0,0,0,0.03746
2020/08/03 01:17:00.004,n,123,0.36,0,1.08,13,80.5,1022.72,0,0,0,0,0.035706
2020/08/03 01:18:00.000,n,140,1.08,0.72,1.08,12.9,80.4,1022.72,0,0,0,0,0.039177
2020/08/03 01:19:00.000,n,147,3.6,3.24,4.32,12.9,80.3,1022.72,0,0,0,0,0.036583
2020/08/03 01:20:00.011,n,140,3.24,2.52,3.96,12.9,80.3,1022.62,0,0,0,0,0.033951
2020/08/03 01:21:00.009,n,155,2.52,2.52,2.88,12.9,80.3,1022.62,0,0,0,0,0.034828
2020/08/03 01:22:00.000,n,168,1.44,1.44,1.8,12.9,80.5,1022.62,0,0,0,0,0.0383
2020/08/03 01:23:00.002,n,161,2.16,1.8,2.16,12.8,80.6,1022.62,0,0,0,0,0.0383
2020/08/03 01:24:00.000,n,184,2.52,2.16,2.88,12.8,80.7,1022.62,0,0,0,0,0.034828
2020/08/03 01:25:00.000,n,184,3.96,3.96,4.32,12.8,80.8,1022.52,0,0,0,0,0.033951
2020/08/03 01:26:00.000,n,205,2.88,2.88,2.88,12.8,80.9,1022.52,0,0,0,0,0.040054
2020/08/03 01:27:00.008,n,73,0.36,0.36,0.72,12.8,80.9,1022.52,0,0,0,0,0.036583
2020/08/03 01:28:00.005,n,189,0.72,0.36,0.72,12.8,80.9,1022.52,0,0,0,0,0.032234
2020/08/03 01:29:00.003,n,98,2.52,1.44,3.24,12.8,80.9,1022.52,0,0,0,0,0.03746
2020/08/03 01:30:00.016,n,146,2.52,2.16,2.88,12.8,80.8,1022.52,0,0,0,0,0.031319
2020/08/03 01:31:00.000,n,156,2.16,1.08,2.16,12.7,80.6,1022.52,0,0,0,0,0.035706
2020/08/03 01:32:00.000,n,146,2.16,1.8,2.52,12.7,80.7,1022.52,0,0,0,0,0.036583
2020/08/03 01:33:00.000,n,154,2.16,1.8,2.88,12.7,80.7,1022.52,0,0,0,0,0.026131
2020/08/03 01:34:00.005,n,154,1.8,1.44,2.16,12.6,80.7,1022.52,0,0,0,0,0.033951
2020/08/03 01:35:00.003,n,246,1.44,0.72,2.16,12.6,80.8,1022.42,0,0,0,0,0.035706
2020/08/03 01:36:00.000,n,238,2.16,1.44,2.52,12.6,81.3,1022.42,0,0,0,0,0.033951
2020/08/03 01:37:00.000,n,106,2.52,2.16,2.88,12.7,80.9,1022.42,0,0,0,0,0.031319
2020/08/03 01:38:00.009,n,9,0.36,0.36,0.72,12.7,80.8,1022.42,0,0,0,0,0.032234
2020/08/03 01:39:00.007,n,147,2.16,1.44,2.52,12.7,80.7,1022.42,0,0,0,0,0.033112
2020/08/03 01:40:00.000,n,151,2.16,1.8,2.16,12.6,80.6,1022.42,0,0,0,0,0.032234
2020/08/03 01:41:00.001,n,235,1.44,0.72,1.44,12.6,80.8,1022.42,0,0,0,0,0.029602
2020/08/03 01:42:00.000,n,156,2.52,2.16,2.88,12.6,80.8,1022.32,0,0,0,0,0.033951
2020/08/03 01:43:00.000,n,210,1.8,1.44,1.8,12.6,80.8,1022.32,0,0,0,0,0.033951
2020/08/03 01:44:00.000,n,136,0.36,0.36,0.36,12.6,80.7,1022.32,0,0,0,0,0.034828
2020/08/03 01:45:00.007,n,153,1.08,0.72,1.08,12.6,80.8,1022.32,0,0,0,0,0.033951
2020/08/03 01:46:00.004,n,153,2.16,2.16,2.52,12.6,80.9,1022.32,0,0,0,0,0.035706
2020/08/03 01:47:00.002,n,155,1.08,0.72,1.44,12.7,80.8,1022.32,0,0,0,0,0.032234
2020/08/03 01:48:00.015,n,217,1.08,0.72,1.8,12.7,80.7,1022.32,0,0,0,0,0.033951
2020/08/03 01:49:00.000,n,318,0.72,0.36,1.08,12.7,80.8,1022.32,0,0,0,0,0.033951
2020/08/03 01:50:00.000,n,232,0.72,0.36,0.72,12.7,80.9,1022.32,0,0,0,0,0.033951
2020/08/03 01:51:00.000,n,252,2.52,1.8,3.24,12.7,80.9,1022.32,0,0,0,0,0.029602
2020/08/03 01:52:00.005,n,276,2.88,2.16,3.24,12.7,80.8,1022.22,0,0,0,0,0.029602
2020/08/03 01:53:00.003,n,317,0.36,0,0.72,12.7,80.7,1022.22,0,0,0,0,0.033951
2020/08/03 01:54:00.000,n,276,1.08,0.72,1.44,12.7,80.7,1022.22,0,0,0,0,0.032234
2020/08/03 01:55:00.000,n,277,3.24,2.52,3.96,12.7,81,1022.22,0,0,0,0,0.031319
2020/08/03 01:56:00.009,n,113,0.72,0.36,1.08,12.7,80.9,1022.22,0,0,0,0,0.031319
2020/08/03 01:57:00.007,n,135,2.16,1.08,2.88,12.8,80.8,1022.22,0,0,0,0,0.034828
2020/08/03 01:58:00.000,n,172,3.96,3.6,5.04,12.8,80.7,1022.22,0,0,0,0,0.031319
2020/08/03 01:59:00.001,n,138,2.52,2.52,2.88,12.8,80.6,1022.22,0,0,0,0,0.029602
2020/08/03 02:00:00.000,n,113,1.44,1.08,1.44,12.7,80.5,1022.22,0,0,0,0,0.029602
2020/08/03 02:01:00.000,n,170,6.12,5.76,6.12,12.7,80.4,1022.22,0,0,0,0,0.033112
2020/08/03 02:02:00.000,n,165,3.6,3.24,3.96,12.7,80.3,1022.22,0,0,0,0,0.036583
2020/08/03 02:03:00.006,n,151,5.04,4.68,5.76,12.7,80.2,1022.12,0,0,0,0,0.03746
2020/08/03 02:04:00.003,n,152,1.8,0.72,2.16,12.7,80.3,1022.12,0,0,0,0,0.033112
2020/08/03 02:05:00.001,n,169,2.88,2.52,2.88,12.6,80.3,1022.12,0,0,0,0,0.031319
2020/08/03 02:06:00.015,n,167,5.04,4.68,5.4,12.6,80.3,1022.12,0,0,0,0,0.03746
2020/08/03 02:07:00.000,n,192,3.96,2.88,5.04,12.6,80.3,1022.12,0,0,0,0,0.034828
2020/08/03 02:08:00.000,n,163,4.68,3.96,5.4,12.6,80.2,1022.12,0,0,0,0,0.035706
2020/08/03 02:09:00.000,n,156,6.12,5.4,6.84,12.6,80.4,1022.12,0,0,0,0,0.033951
2020/08/03 02:10:00.003,n,127,2.88,1.08,4.32,12.6,80.5,1022.12,0,0,0,0,0.034828
2020/08/03 02:11:00.000,n,205,1.8,1.08,2.52,12.6,80.5,1022.12,0,0,0,0,0.029602
2020/08/03 02:12:00.000,n,236,1.44,0.72,2.16,12.7,80.5,1022.12,0,0,0,0,0.032234
2020/08/03 02:13:00.010,n,84,1.44,0.72,2.16,12.7,80.6,1022.12,0,0,0,0,0.030479
2020/08/03 02:14:00.008,n,142,1.44,1.44,1.8,12.7,80.4,1022.12,0,0,0,0,0.033951
2020/08/03 02:15:00.005,n,126,1.8,1.8,2.52,12.7,80.4,1022.12,0,0,0,0,0.032234
2020/08/03 02:16:00.000,n,62,1.44,0.72,2.16,12.7,80.4,1022.12,0,0,0,0,0.033112
2020/08/03 02:17:00.000,n,40,3.24,2.52,3.6,12.7,80.4,1022.12,0,0,0,0,0.031319
2020/08/03 02:18:00.000,n,198,0.72,0.72,1.08,12.8,80.3,1022.12,0,0,0,0,0.031319
2020/08/03 02:19:00.000,n,8,1.8,1.08,2.16,12.8,80.4,1022.12,0,0,0,0,0.033951
2020/08/03 02:20:00.008,n,57,0.72,0.36,1.08,12.8,80.4,1022.12,0,0,0,0,0.031319
2020/08/03 02:21:00.006,n,110,1.08,1.08,1.08,12.9,80.2,1022.12,0,0,0,0,0.032234
2020/08/03 02:22:00.002,n,83,2.16,1.8,2.88,12.9,80,1022.02,0,0,0,0,0.027885
2020/08/03 02:23:00.000,n,21,3.6,2.88,4.32,12.9,80,1022.02,0,0,0,0,0.029602
2020/08/03 02:24:00.013,n,49,2.88,2.52,2.88,12.9,80,1022.02,0,0,0,0,0.032234
2020/08/03 02:25:00.000,n,65,3.24,2.88,3.96,12.9,79.9,1022.02,0,0,0,0,0.030479
2020/08/03 02:26:00.000,n,215,0.72,0.36,1.08,12.9,79.8,1022.02,0,0,0,0,0.033112
2020/08/03 02:27:00.004,n,66,1.44,0.72,2.16,12.9,80,1022.02,0,0,0,0,0.033951
2020/08/03 02:28:00.001,n,162,2.16,1.44,2.52,12.9,79.7,1022.02,0,0,0,0,0.034828
2020/08/03 02:29:00.000,n,96,1.44,0.72,1.44,12.9,79.6,1022.02,0,0,0,0,0.028763
2020/08/03 02:30:00.000,n,267,1.44,1.08,1.8,12.9,79.8,1022.02,0,0,0,0,0.029602
2020/08/03 02:31:00.008,n,142,0.72,0.72,1.08,12.9,79.7,1022.02,0,0,0,0,0.031319
2020/08/03 02:32:00.005,n,253,2.52,1.08,3.24,12.9,79.7,1022.02,0,0,0,0,0.035706
2020/08/03 02:33:00.003,n,199,1.08,0.36,1.44,12.9,79.7,1022.02,0,0,0,0,0.033112
2020/08/03 02:34:00.000,n,73,1.8,0.72,3.24,12.9,79.9,1021.92,0,0,0,0,0.035706
2020/08/03 02:35:00.000,n,90,1.08,0.72,1.44,13,79.9,1021.92,0,0,0,0,0.035706
2020/08/03 02:36:00.000,n,89,2.16,0.72,3.24,12.9,79.6,1021.92,0,0,0,0,0.034828
2020/08/03 02:37:00.000,n,149,2.16,1.8,2.52,12.9,79.6,1021.92,0,0,0,0,0.031319
2020/08/03 02:38:00.005,n,150,1.08,0.72,1.44,12.9,79.4,1021.92,0,0,0,0,0.034828
2020/08/03 02:39:00.003,n,120,2.52,1.8,2.52,12.9,79.4,1021.92,0,0,0,0,0.033951
2020/08/03 02:40:00.001,n,147,0.36,0.36,1.08,12.9,79.6,1021.92,0,0,0,0,0.033112
2020/08/03 02:41:00.013,n,73,2.88,2.16,3.6,12.8,79.9,1021.92,0,0,0,0,0.035706
2020/08/03 02:42:00.010,n,76,0.72,0.36,0.72,12.8,79.7,1021.92,0,0,0,0,0.032234
2020/08/03 02:43:00.000,n,318,1.44,0.72,2.16,12.8,79.8,1021.82,0,0,0,0,0.034828
2020/08/03 02:44:00.000,n,97,2.16,1.44,2.52,12.9,79.8,1021.82,0,0,0,0,0.033951
2020/08/03 02:45:00.002,n,144,2.16,1.44,2.52,12.9,79.8,1021.82,0,0,0,0,0.032234
2020/08/03 02:46:00.000,n,147,0.72,0.36,0.72,12.8,79.8,1021.82,0,0,0,0,0.033112
2020/08/03 02:47:00.000,n,149,1.08,0.72,1.44,12.8,79.8,1021.82,0,0,0,0,0.035706
2020/08/03 02:48:00.009,n,255,2.88,1.8,3.6,12.8,80,1021.82,0,0,0,0,0.031319
2020/08/03 02:49:00.006,n,342,2.16,1.8,2.88,12.8,80.5,1021.82,0,0,0,0,0.033951
2020/08/03 02:50:00.003,n,284,3.24,2.88,3.24,12.9,80.6,1021.82,0,0,0,0,0.032234
2020/08/03 02:51:00.000,n,229,2.52,2.16,2.88,12.9,80.2,1021.82,0,0,0,0,0.033112
2020/08/03 02:52:00.000,n,259,3.24,2.16,3.96,12.9,80.5,1021.82,0,0,0,0,0.034828
2020/08/03 02:53:00.000,n,251,3.6,3.6,3.96,12.9,80.3,1021.82,0,0,0,0,0.031319
2020/08/03 02:54:00.000,n,246,2.52,2.16,2.88,12.8,80.3,1021.82,0,0,0,0,0.030479
2020/08/03 02:55:00.005,n,254,2.16,1.8,2.88,12.8,80.4,1021.82,0,0,0,0,0.034828
2020/08/03 02:56:00.004,n,296,3.24,2.16,3.6,12.8,80.7,1021.82,0,0,0,0,0.031319
2020/08/03 02:57:00.001,n,265,1.44,1.08,2.16,12.8,80.6,1021.82,0,0,0,0,0.030479
2020/08/03 02:58:00.000,n,295,1.08,0.36,1.8,12.8,80.8,1021.82,0,0,0,0,0.02697
2020/08/03 02:59:00.011,n,241,2.16,2.16,2.16,12.8,80.9,1021.82,0,0,0,0,0.028763
2020/08/03 03:00:00.009,n,149,0.72,0,0.72,12.8,80.9,1021.82,0,0,0,0,0.030479
2020/08/03 03:01:00.000,n,345,0.36,0,0.72,12.8,80.8,1021.82,0,0,0,0,0.026131
2020/08/03 03:02:00.002,n,239,2.88,2.52,3.24,12.7,80.9,1021.82,0,0,0,0,0.030479
2020/08/03 03:03:00.000,n,111,0.72,0,1.8,12.7,80.9,1021.82,0,0,0,0,0.024376
2020/08/03 03:04:00.000,n,215,3.24,2.52,3.6,12.7,81,1021.82,0,0,0,0,0.027885
2020/08/03 03:05:00.000,n,178,2.52,0.72,4.32,12.7,81.1,1021.82,0,0,0,0,0.026131
2020/08/03 03:06:00.007,n,142,2.52,2.16,3.24,12.7,81.2,1021.82,0,0,0,0,0.024376
2020/08/03 03:07:00.004,n,137,4.32,3.6,5.04,12.7,81.3,1021.82,0,0,0,0,0.024376
2020/08/03 03:08:00.001,n,168,2.16,1.08,3.24,12.7,81.3,1021.82,0,0,0,0,0.024376
2020/08/03 03:09:00.015,n,158,5.04,4.68,6.12,12.7,81.3,1021.72,0,0,0,0,0.025253
2020/08/03 03:10:00.000,n,140,3.6,2.52,4.32,12.7,81.3,1021.72,0,0,0,0,0.022621
2020/08/03 03:11:00.000,n,189,1.8,1.08,2.16,12.7,81.2,1021.72,0,0,0,0,0.02697
2020/08/03 03:12:00.000,n,209,3.6,3.24,4.32,12.7,81.2,1021.72,0,0,0,0,0.024376
2020/08/03 03:13:00.005,n,124,2.52,2.16,3.24,12.7,81.2,1021.72,0,0,0,0,0.023499
2020/08/03 03:14:00.003,n,204,1.44,0.36,3.6,12.7,81.2,1021.72,0,0,0,0,0.021782
2020/08/03 03:15:00.000,n,154,0.72,0.36,1.08,12.7,81.3,1021.72,0,0,0,0,0.025253
2020/08/03 03:16:00.000,n,123,1.8,0.36,3.24,12.7,81.3,1021.72,0,0,0,0,0.018272
2020/08/03 03:17:00.010,n,69,0.72,0.36,1.44,12.6,81.4,1021.72,0,0,0,0,0.025253
2020/08/03 03:18:00.008,n,235,1.08,0.72,1.44,12.6,81.4,1021.72,0,0,0,0,0.026131
2020/08/03 03:19:00.000,n,236,0.72,0,1.08,12.6,81.5,1021.72,0,0,0,0,0.022621
2020/08/03 03:20:00.001,n,357,1.44,1.44,1.8,12.7,81.4,1021.72,0,0,0,0,0.022621
2020/08/03 03:21:00.000,n,313,3.6,2.88,3.96,12.7,81.6,1021.72,0,0,0,0,0.021782
2020/08/03 03:22:00.000,n,180,2.16,1.8,2.88,12.7,81.4,1021.72,0,0,0,0,0.025291
2020/08/03 03:23:00.004,n,70,1.44,0.72,1.8,12.6,81.3,1021.72,0,0,0,0,0.035706
2020/08/03 03:24:00.002,n,258,1.44,1.08,1.8,12.6,81.2,1021.72,0,0,0,0,0.035706
2020/08/03 03:25:00.000,n,299,0.72,0.36,1.08,12.6,81.4,1021.72,0,0,0,0,0.035706
2020/08/03 03:26:00.012,n,265,3.24,2.88,3.6,12.6,81.4,1021.72,0,0,0,0,0.033989
2020/08/03 03:27:00.010,n,86,2.16,1.44,2.88,12.6,81.5,1021.72,0,0,0,0,0.031357
2020/08/03 03:28:00.000,n,339,4.68,4.32,5.04,12.6,81.5,1021.72,0,0,0,0,0.028725
2020/08/03 03:29:00.003,n,192,3.6,2.16,5.76,12.5,81.5,1021.72,0,0,0,0,0.032234
2020/08/03 03:30:00.001,n,88,1.08,0.36,2.52,12.5,81.5,1021.72,0,0,0,0,0.033073
2020/08/03 03:31:00.000,n,279,2.88,1.44,4.32,12.5,81.7,1021.72,0,0,0,0,0.027885
2020/08/03 03:32:00.000,n,197,3.6,2.52,3.96,12.5,81.6,1021.72,0,0,0,0,0.030479
2020/08/03 03:33:00.008,n,168,2.16,1.8,2.88,12.5,81.5,1021.72,0,0,0,0,0.027008
2020/08/03 03:34:00.007,n,148,3.24,3.24,3.24,12.5,81.5,1021.72,0,0,0,0,0.025291
2020/08/03 03:35:00.003,n,92,0.72,0.72,1.08,12.4,81.5,1021.72,0,0,0,0,0.024376
2020/08/03 03:36:00.001,n,208,3.24,2.16,3.6,12.4,81.9,1021.72,0,0,0,0,0.02964
2020/08/03 03:37:00.000,n,140,3.6,2.88,3.96,12.4,81.9,1021.72,0,0,0,0,0.030479
2020/08/03 03:38:00.000,n,154,1.44,1.08,2.16,12.4,82,1021.72,0,0,0,0,0.028725
2020/08/03 03:39:00.000,n,310,0.72,0.36,1.08,12.5,81.8,1021.72,0,0,0,0,0.027885
2020/08/03 03:40:00.006,n,253,3.96,3.6,4.32,12.5,82,1021.72,0,0,0,0,0.02964
2020/08/03 03:41:00.004,n,106,1.44,1.08,2.16,12.5,82.2,1021.72,0,0,0,0,0.022659
2020/08/03 03:42:00.001,n,132,1.8,1.08,2.16,12.5,81.8,1021.72,0,0,0,0,0.025291
2020/08/03 03:43:00.000,n,116,3.6,2.52,5.04,12.5,81.7,1021.72,0,0,0,0,0.027885
2020/08/03 03:44:00.011,n,1,3.24,2.16,4.32,12.5,82.1,1021.72,0,0,0,0,0.026131
2020/08/03 03:45:00.009,n,314,2.52,1.08,3.24,12.5,81.9,1021.72,0,0,0,0,0.026131
2020/08/03 03:46:00.000,n,185,1.08,0.72,1.08,12.5,81.7,1021.72,0,0,0,0,0.022659
2020/08/03 03:47:00.002,n,233,2.16,1.08,2.52,12.5,81.8,1021.72,0,0,0,0,0.024376
2020/08/03 03:48:00.000,n,260,3.6,2.88,4.32,12.5,81.8,1021.72,0,0,0,0,0.021782
2020/08/03 03:49:00.000,n,198,0.72,0.36,0.72,12.4,81.7,1021.72,0,0,0,0,0.02964
2020/08/03 03:50:00.000,n,351,1.08,0.72,1.44,12.4,81.8,1021.72,0,0,0,0,0.025291
2020/08/03 03:51:00.008,n,46,2.88,1.8,3.6,12.4,82,1021.72,0,0,0,0,0.028725
2020/08/03 03:52:00.005,n,166,3.96,3.24,4.68,12.4,81.8,1021.72,0,0,0,0,0.020905
2020/08/03 03:53:00.003,n,138,0.72,0,1.8,12.4,81.8,1021.72,0,0,0,0,0.023499
2020/08/03 03:54:00.000,n,38,0.72,0.36,1.08,12.4,81.7,1021.72,0,0,0,0,0.026131
2020/08/03 03:55:00.000,n,109,1.8,1.08,1.8,12.4,81.7,1021.72,0,0,0,0,0.021782
2020/08/03 03:56:00.000,n,324,3.6,2.88,3.96,12.4,81.8,1021.72,0,0,0,0,0.020027
2020/08/03 03:57:00.000,n,267,3.6,3.24,3.96,12.4,81.9,1021.72,0,0,0,0,0.025291
2020/08/03 03:58:00.006,n,258,1.08,0.72,1.44,12.4,81.8,1021.72,0,0,0,0,0.022659
2020/08/03 03:59:00.004,n,234,0.72,0.36,1.44,12.4,81.9,1021.72,0,0,0,0,0.01915
2020/08/03 04:00:00.001,n,156,1.08,0.72,1.44,12.5,82.2,1021.72,0,0,0,0,0.028725
2020/08/03 04:01:00.012,n,294,0.72,0.36,1.08,12.5,81.9,1021.72,0,0,0,0,0.031357
2020/08/03 04:02:00.010,n,291,2.52,1.8,2.88,12.4,81.8,1021.72,0,0,0,0,0.033073
2020/08/03 04:03:00.007,n,113,0.72,0.36,0.72,12.4,81.9,1021.72,0,0,0,0,0.037422
2020/08/03 04:04:00.000,n,262,1.8,1.44,1.8,12.4,82,1021.72,0,0,0,0,0.035706
2020/08/03 04:05:00.000,n,171,0.72,0.36,0.72,12.4,81.9,1021.72,0,0,0,0,0.033951
2020/08/03 04:06:00.000,n,166,0.72,0.36,1.44,12.4,82,1021.72,0,0,0,0,0.031357
2020/08/03 04:07:00.000,n,99,0.36,0,0.72,12.4,81.9,1021.72,0,0,0,0,0.030479
2020/08/03 04:08:00.009,n,147,0.36,0,0.72,12.4,81.9,1021.72,0,0,0,0,0.033951
2020/08/03 04:09:00.006,n,240,0.72,0,1.08,12.3,81.9,1021.72,0,0,0,0,0.033073
2020/08/03 04:10:00.003,n,249,1.44,1.44,1.8,12.3,81.9,1021.72,0,0,0,0,0.028725
2020/08/03 04:11:00.002,n,68,0.72,0,1.08,12.3,81.9,1021.72,0,0,0,0,0.030479
2020/08/03 04:12:00.015,n,129,1.08,0.72,1.44,12.3,82,1021.72,0,0,0,0,0.028725
2020/08/03 04:13:00.000,n,298,1.44,0.72,2.88,12.3,82,1021.72,0,0,0,0,0.028725
2020/08/03 04:14:00.000,n,157,2.52,1.08,4.68,12.3,82.2,1021.72,0,0,0,0,0.028725
2020/08/03 04:15:00.000,n,121,1.08,0.72,1.8,12.3,82.1,1021.72,0,0,0,0,0.030479
2020/08/03 04:16:00.004,n,280,2.52,0.72,3.96,12.3,82.2,1021.72,0,0,0,0,0.032196
2020/08/03 04:17:00.002,n,217,2.88,2.52,3.6,12.3,82.3,1021.72,0,0,0,0,0.030479
2020/08/03 04:18:00.000,n,258,2.52,2.16,2.88,12.3,82.2,1021.72,0,0,0,0,0.031357
2020/08/03 04:19:00.012,n,183,0.72,0.36,0.72,12.3,82.3,1021.82,0,0,0,0,0.030479
2020/08/03 04:20:00.009,n,282,3.96,3.24,4.32,12.3,82.4,1021.82,0,0,0,0,0.028725
2020/08/03 04:21:00.006,n,266,2.16,1.8,2.16,12.2,82.2,1021.82,0,0,0,0,0.027847
2020/08/03 04:22:00.000,n,300,1.8,1.44,2.16,12.2,82.4,1021.82,0,0,0,0,0.028725
2020/08/03 04:23:00.000,n,251,1.8,1.08,2.52,12.2,82.4,1021.72,0,0,0,0,0.029602
2020/08/03 04:24:00.000,n,244,5.4,4.68,5.76,12.2,82.6,1021.82,0,0,0,0,0.027847
2020/08/03 04:25:00.000,n,270,3.96,2.52,4.68,12.2,82.4,1021.82,0,0,0,0,0.032196
2020/08/03 04:26:00.008,n,238,1.8,1.44,2.88,12.2,82.6,1021.82,0,0,0,0,0.028725
2020/08/03 04:27:00.005,n,200,1.08,0.72,1.8,12.2,82.5,1021.82,0,0,0,0,0.025253
2020/08/03 04:28:00.002,n,62,1.8,1.08,2.52,12.2,82.4,1021.82,0,0,0,0,0.027008
2020/08/03 04:29:00.000,n,262,2.52,1.8,3.6,12.2,82.5,1021.82,0,0,0,0,0.022659
2020/08/03 04:30:00.013,n,1,2.88,2.16,3.96,12.2,82.9,1021.82,0,0,0,0,0.029602
2020/08/03 04:31:00.000,n,320,2.52,1.8,2.88,12.2,82.9,1021.82,0,0,0,0,0.025253
2020/08/03 04:32:00.000,n,287,2.52,1.8,3.24,12.2,82.7,1021.82,0,0,0,0,0.028725
2020/08/03 04:33:00.004,n,293,0.36,0,0.72,12.2,82.8,1021.72,0,0,0,0,0.025253
2020/08/03 04:34:00.001,n,281,1.44,1.08,2.16,12.2,82.6,1021.72,0,0,0,0,0.025253
2020/08/03 04:35:00.000,n,136,1.44,0.36,2.16,12.2,82.5,1021.72,0,0,0,0,0.026131
2020/08/03 04:36:00.000,n,276,3.6,2.16,4.68,12.1,82.5,1021.72,0,0,0,0,0.024376
2020/08/03 04:37:00.009,n,28,2.16,1.44,2.52,12.1,82.6,1021.72,0,0,0,0,0.025253
2020/08/03 04:38:00.006,n,300,1.08,0.72,1.44,12.1,82.7,1021.72,0,0,0,0,0.024376
2020/08/03 04:39:00.003,n,121,2.88,2.16,3.6,12.1,82.6,1021.72,0,0,0,0,0.027847
2020/08/03 04:40:00.001,n,262,1.44,1.08,1.8,12.1,82.6,1021.72,0,0,0,0,0.025253
2020/08/03 04:41:00.000,n,179,3.24,2.88,3.96,12.1,82.7,1021.72,0,0,0,0,0.025253
2020/08/03 04:42:00.000,n,120,1.08,0.72,1.44,12.1,82.6,1021.72,0,0,0,0,0.027008
2020/08/03 04:43:00.000,n,115,2.52,2.52,2.88,12.1,82.7,1021.72,0,0,0,0,0.020027
2020/08/03 04:44:00.007,n,151,2.16,2.16,2.52,12.1,82.6,1021.72,0,0,0,0,0.023499
2020/08/03 04:45:00.005,n,163,3.6,2.88,4.68,12,82.7,1021.72,0,0,0,0,0.020866
2020/08/03 04:46:00.002,n,163,3.24,2.16,4.32,12,82.8,1021.72,0,0,0,0,0.023499
2020/08/03 04:47:00.000,n,118,1.08,0.36,1.8,12,82.8,1021.72,0,0,0,0,0.027008
2020/08/03 04:48:00.010,n,190,5.04,4.68,5.4,12,82.8,1021.72,0,0,0,0,0.030518
2020/08/03 04:49:00.000,n,142,2.88,2.52,3.24,11.9,82.9,1021.72,0,0,0,0,0.034866
2020/08/03 04:50:00.000,n,177,5.04,4.32,5.76,11.9,82.9,1021.72,0,0,0,0,0.032234
2020/08/03 04:51:00.002,n,156,5.76,5.04,6.12,11.9,82.9,1021.72,0,0,0,0,0.037498
2020/08/03 04:52:00.000,n,140,4.68,4.32,5.4,11.8,83.1,1021.72,0,0,0,0,0.035706
2020/08/03 04:53:00.000,n,162,6.12,5.4,7.56,11.8,83.2,1021.72,0,0,0,0,0.036583
2020/08/03 04:54:00.010,n,145,4.68,3.6,5.4,11.8,83.3,1021.72,0,0,0,0,0.030518
2020/08/03 04:55:00.008,n,156,5.4,5.04,6.84,11.8,83.4,1021.72,0,0,0,0,0.030518
2020/08/03 04:56:00.005,n,172,2.52,1.44,2.88,11.8,83.4,1021.72,0,0,0,0,0.02964